Location: Cabri�res
(43.7840°N, 5.4986°E)
Time: 15:42:47
(UTC+00:00)

STARLINK-1241 - Pass Details

Date: 09 April 2020
Orbit: 549 x 550 km, 53.0° (Epoch: 28 May)

Event Time Altitude Azimuth Distance (km) Brightness Sun altitude
Rises 19:54:30 0° 305° (NW) 2,734 8.9 -17.5°
Reaches altitude 10° 19:56:49 10° 312° (NW) 1,838 7.5 -17.9°
Maximum altitude 20:00:51 45° 26° (NNE) 757 4.3 -18.5°
Enters shadow 20:02:09 34° 73° (ENE) 928 4.4 -18.7°
